OPS 0856 DEB, 23820

Orbit data source: Space-Track

OPS 0856 DEB, 23820 is space debris in LEO originally from a launch on Fri, 19 Aug 1966 UTC launched from the Air Force Western Test Range (AFWTR). Debris objects in space refer to the collection of defunct objects orbiting the Earth. Examples of debris include non-operational satellites, rocket bodies, and fragments generated from explosions, collisions, or faulty payload assembly.

Loading next visibility...
Identifier
23820, 1966-077D
Orbit
LEO
Country
Flag of USUS
Related business
Manufacturer
Unknown
Mission
Spacecraft
Bus & Motor
Unknown
Mass
Unknown
Launch date (UTC)
1966-08-19 (60 years ago)
Launch vehicle
Unknown
Launch site
Air Force Western Test Range (AFWTR)
Object type
Payload
Rocket body
Debris
Shape & HBR
Unknown shape, 0.1 m
Radar Cross Section
Small (<0.1 m²)

Expand to show TLE details & history
Last TLE update: 1 year ago

TLE from 1 year ago
0 OPS 0856 DEB
1 23820U 66077D   25022.78110296 -.00009238  00000-0 -56236+0 0  9991
2 23820  88.4531 332.1713 1828241 293.0412  48.8323  8.90978338 41337
Epoch: 2025-01-22T18:44Z
TLE epoch observation values (Epoch: 2025-01-22T18:44:47.295Z)
Latitude
-0.00004°
Longitude
-71.39382°
Altitude
2,492.171 km
Speed
7.024 km/s
True Right ascension
22h 08m 41s
True Declination
0° 00' 00"
Sunlit
Object was in daylight at epoch
Visualization orbit readout
Latitude
Unknown
Longitude
Unknown
Altitude
Unknown
Speed
Unknown
Apparent Right ascension
Unknown
Apparent Declination
Unknown
Sunlit
N/A
Visualization observer readout
Local Sidereal Time
07:47:54
Azimuth
Unknown
Elevation
Unknown
Doppler factor
Unknown
Orbital elements
Apogee altitude
5,244.559 km
Perigee altitude
1,651.618 km
Semi-major axis
9,826.226 km
Eccentricity
0.18282
Inclination
88.4531°
RAAN
332.1713°
Arg. of periapsis
293.0412°
True anomaly
67.05478°
Mean anomaly
48.8323°
Eccentric anomaly
57.68499°
Mean motion
2.22825 °/min
Orbital period
161.56 mins
BSTAR
-0.56236
Loading maneuver chart data...
Computing Atmospheric mass density...
Loading historical data...
Loading historical data...
Loading historical data...
Loading historical data...
Loading historical data...
Loading historical data...
Loading historical data...

Documentation

Showing up to 5 results
|